Regional Weather Roundup
Issued by NWS Goodland, KS

Home | Current Version | Previous Version | Text Only | Print | Product List | Glossary On
Versions: 1 2 3 4 5 6 7 8 9 10 11 12 13 14 15 16 17 18 19 20 21 22 23 24 25 26 27 28 29 30 31 32 33 34 35 36 37 38 39 40 41 42 43 44 45 46 47 48 49 50
000
ASUS43 KGLD 182008
RWRGLD

GOODLAND FORECAST AREA HOURLY WEATHER ROUNDUP
NATIONAL WEATHER SERVICE GOODLAND KS
100 PM MST THU DEC 18 2014

...OFFICIAL OBSERVATIONS...

CITY           SKY/WX    TMP DP  RH WIND       PRES   REMARKS
GOODLAND KS    SUNNY     38  32  79 W7        30.05F
HILL CITY KS   CLOUDY    31  27  85 W5        30.14F
IMPERIAL NEB   MOSUNNY   26  24  92 CALM      30.06F
MCCOOK NEB     CLOUDY    28  25  88 SW5       30.10F
AKRON CO       PTSUNNY   31  27  85 W8        30.02F
BURLINGTON CO  SUNNY     39  28  64 W6        30.04F
LIMON CO       SUNNY     43  23  45 S10       30.01F
$$

...UNOFFICIAL OBSERVATIONS...

CITY           SKY/WX    TMP DP  RH WIND       PRES   REMARKS
GOVE KS          N/A     32  32 100 MISG        N/A
SHARON SPRINGS   N/A     37  36  96 W5          N/A
TRIBUNE KS     MOSUNNY   37  37 100 SW6       30.08F
YUMA CO          N/A     34  34 100 W5          N/A
$$


USA.gov is the U.S. government's official web portal to all federal, state and local government web resources and services.